Theta_e
295 296 297 297 298 298 298 299 300 299 299 298 298 297 297 296 296 295 295 294 295 294
293 293 293 294 296 296 297 297 298 299 298 297 296 296 296 295 294 294 294 294 294 294
291 292 292 293 293 293 294 295 295 295 296 297 296 295 294 293 293 293 293 293 292 293
289 290 290 290 290 291 292 292 292 293 293 294 294 294 294 293 293 291 291 291 291 291
287 288 288 288 288 288 288 289 290 291 290 291 292 292 292 291 291 291 290 290 289 289
285 286 286 286 286 286 286 287 288 288 289 289 289 290 291 291 290 290 290 290 289 288
284 284 285 286 285 284 285 285 286 287 287 287 288 287 288 288 288 289 289 289 289 289
283 284 284 284 283 282 282 283 284 285 286 286 286 286 286 287 287 287 287 288 288 288
282 282 282 282 282 281 281 281 283 284 284 284 284 287 288 288 286 286 285 285 287 287
281 281 281 280 280 279 279 280 280 282 283 282 283 286 287 288 286 286 285 285 285 285
281 280 280 279 278 278 278 278 278 279 281 280 280 284 286 287 286 286 285 285 285 284
280 279 278 276 276 277 276 276 276 277 277 277 278 283 284 285 285 284 284 285 286 285
278 277 276 276 275 276 275 275 275 275 275 276 276 280 282 283 283 283 284 284 285 285
275 274 274 274 274 273 272 272 271 271 272 273 275 276 281 283 282 282 283 283 284 285
Wind_Speed
13 8 8 9 7 6 5 5 6 7 10 12 13 13 12 10 11 12 13 16 12 9
11 12 10 10 9 7 8 7 8 7 7 10 12 13 13 11 12 13 13 14 14 12
11 12 11 9 10 10 9 10 9 9 9 9 10 12 13 12 12 13 11 11 15 14
10 11 11 11 11 11 10 10 9 10 10 10 10 11 13 14 14 15 15 14 15 16
10 9 9 10 11 11 13 12 11 9 9 10 10 11 13 14 13 16 16 16 17 18
9 9 9 9 10 11 11 11 11 11 12 10 10 11 12 14 15 16 17 16 18 17
10 10 10 9 8 10 11 11 10 10 10 11 11 11 11 11 14 16 16 17 18 18
10 10 10 9 9 9 10 10 11 10 11 10 9 8 11 12 14 15 17 17 18 18
11 11 10 11 10 10 11 11 12 11 11 12 8 16 20 17 14 15 15 17 18 17
11 12 12 12 12 12 13 13 12 14 12 12 13 21 23 22 12 13 15 18 17 16
13 14 13 13 14 14 13 14 14 15 14 14 14 24 25 23 16 14 17 18 19 18
15 15 16 17 18 17 14 15 15 15 16 16 18 26 27 22 15 16 19 17 18 16
15 15 16 18 19 18 16 18 15 19 18 20 21 28 30 24 12 17 14 16 18 26
16 17 18 19 17 18 18 19 20 21 21 22 22 23 32 31 16 14 14 14 14 12
Wind_Direction
16 3 348 343 324 306 299 274 252 240 237 233 236 233 226 222 219 217 217 218 218 212
11 13 7 354 342 334 320 314 306 283 250 244 242 239 230 226 226 221 216 218 219 220
9 7 2 0 0 348 334 321 311 299 278 262 246 244 239 234 225 226 224 221 220 217
14 2 355 354 353 352 342 335 317 307 294 276 256 251 246 239 236 229 226 223 224 223
5 1 359 353 348 344 340 338 332 313 290 283 270 257 254 245 241 238 233 228 223 222
358 351 348 346 342 338 335 327 330 328 320 298 285 272 263 257 247 243 241 234 229 226
342 334 333 327 327 326 323 319 321 318 310 302 291 276 272 257 257 255 247 243 237 231
319 315 315 311 312 314 310 305 304 306 306 298 289 284 274 269 256 253 257 251 241 236
309 307 303 304 301 305 303 301 301 295 296 297 291 286 281 274 266 261 254 256 253 241
297 297 301 304 304 301 300 298 296 294 287 290 292 290 284 280 264 255 256 256 251 249
294 290 292 299 297 299 298 297 295 293 289 289 287 285 284 277 265 261 255 250 253 251
283 286 292 293 293 293 297 295 293 289 287 281 279 279 279 277 268 257 258 254 245 242
288 285 284 284 285 288 291 289 290 287 282 279 275 273 273 269 261 262 258 253 248 237
294 291 289 289 287 289 287 286 285 284 284 280 272 272 270 265 257 251 254 255 251 241